COSMOS 252 DEB *, 3686

Orbit data source: Space-Track

COSMOS 252 DEB *, 3686 is space debris in LEO originally from a launch on Fri, 01 Nov 1968 UTC launched from the Tyuratam Missile And Space Complex (TTMTR). Debris objects in space refer to the collection of defunct objects orbiting the Earth. Examples of debris include non-operational satellites, rocket bodies, and fragments generated from explosions, collisions, or faulty payload assembly.

Loading next visibility...
Identifier
3686, 1968-097AD
Orbit
LEO
Country
Flag of CISCIS
Related business
Manufacturer
Unknown
Mission
Spacecraft
Bus & Motor
Unknown
Mass
Unknown
Launch date (UTC)
1968-11-01 (57 years ago)
Launch vehicle
Unknown
Launch site
Tyuratam Missile And Space Complex (TTMTR)
Object type
Payload
Rocket body
Debris
Shape & HBR
Unknown shape, 0.1 m
Radar Cross Section
Small (<0.1 m²)

Expand to show TLE details & history
Last TLE update: 17 hours ago

TLE from 17 hours ago
0 COSMOS 252 DEB *
1 03686U 68097AD  26034.51295265  .00001573  00000-0  14831-2 0  9998
2 03686  62.2601  84.6449 0639332 141.2345 223.6378 13.17381231679152
Epoch: 2026-02-03T12:18Z
TLE epoch observation values (Epoch: 2026-02-03T12:18:39.108Z)
Latitude
-0.00004°
Longitude
126.28912°
Altitude
1,560.59 km
Speed
6.915 km/s
True Right ascension
05h 38m 34s
True Declination
0° 00' 00"
Sunlit
Object was in daylight at epoch
Visualization orbit readout
Latitude
Unknown
Longitude
Unknown
Altitude
Unknown
Speed
Unknown
Apparent Right ascension
Unknown
Apparent Declination
Unknown
Sunlit
N/A
Visualization observer readout
Local Sidereal Time
07:43:15
Azimuth
Unknown
Elevation
Unknown
Doppler factor
Unknown
Orbital elements
Apogee altitude
1,677.813 km
Perigee altitude
709.627 km
Semi-major axis
7,571.857 km
Eccentricity
0.06393
Inclination
62.2601°
RAAN
84.6449°
Arg. of periapsis
141.2345°
True anomaly
218.86447°
Mean anomaly
223.6378°
Eccentric anomaly
221.22381°
Mean motion
3.29412 °/min
Orbital period
109.29 mins
BSTAR
0.0014831

Documentation

Showing up to 5 results
|